Вернуться в каталог

IRIDE-MS2-HEO-7

АктивенНаукаSSO
NORAD 68981·PAYLOAD·🇹🇼 Taiwan

Запущен May 3, 2026 с Vandenberg Space Force Base

Loading…

Ближайшие Пролёты (ближайшие 24 часа)

TLE

СвежийSource: Space-Track

Эпоха: Sep 13, 2026, 16:09 UTC

1 68981U 26100B   26256.67339154  .00001156  00000-0  12185-3 0  9993
2 68981  97.7233 152.2859 0004143 198.8674 161.2392 14.91211281 19882

Отслеживайте IRIDE-MS2-HEO-7 в реальном времени с AllMySat

Download on the App Store